Tracking 19170 objects as of 23-May-2018
HD Live streaming from Space Station
objects crossing your sky now

NOAA 16 DEB

Track NOAA 16 DEB now!
10-day predictions


NORAD ID: 41273
Int'l Code: 2000-055FZ
Perigee: 759.1 km
Apogee: 852.3 km
Inclination: 98.9 °
Period: 100.8 minutes
Semi major axis: 7176 km
RCS: Unknown
Launch date: September 21, 2000
Source: United States (US)
Launch site: AIR FORCE WESTERN TEST RANGE (AFWTR)

Note: This is SATELLITE DEBRIS
aabbcc
Your satellite tracking list
Your tracking list is empty




NASA's NSSDC Master Catalog

Two Line Element Set (TLE):
1 41273U 00055FZ  18142.49612128 +.00000971 +00000-0 +40106-3 0  9997
2 41273 098.8751 238.7804 0064944 007.8104 352.4072 14.27951370126052
Source of the keplerian elements: AFSPC